Время (UTC), дата Ветер
(°,м/с) 
Видим.   Явления Облачность Т
(°С)
Тd
(°С)
f(%) Тe
(°С)
Pmin
(гПа)
dP
(гПа)
Po
(мм)
O2
(г/м3)
Тmin Tmax R s Состояние
почвы
00 01.08.12 070 (В) 10 км    8/0 средняя 
[Ac trans]
+20.6 +4.1 34 +21  1012  -0.3  752  281           
03 01.08.12 080 (В) 10 км    9/0 средняя, верхняя 
[Ac trans|Ci fib]
+20.1 +4 35 +20  1012.9  0.8  753  282           
06 01.08.12 080 (В) 10 км    6/0 средняя, верхняя 
[Ac trans|Ci fib]
+24.9 +10.3 40 +26  1013  0.1  753  276  +19.7         
09 01.08.12 090 (В) 10 км    8/0 средняя, верхняя 
[Ac trans|Ci fib]
+30.2 +5.8 21 +30  1012.2  -0.5  753  272           
12 01.08.12 090 (В) 10 км    8/0 средняя, верхняя 
[Ac trans|Ci fib]
+30.8 +4.8 19 +31  1011.7  -0.5  752  272           
15 01.08.12 100 (В) 10 км    6/0 средняя, верхняя 
[Ac trans|Ci fib]
+31.5 +5.3 19 +32  1011.3  -0.4  752  271           
18 01.08.12 060 (СВ) 10 км    8/0 средняя, верхняя 
[Ac trans|Ci fib]
+24.9 +7.1 32 +25  1012.6  1.1  753  277    +32.5       
21 01.08.12 050 (СВ) 10 км    9/0 средняя, верхняя 
[Ac trans|Ci fib]
+24.8 +5.6 29 +25  1012.8  0.1  753  277           
00 02.08.12 060 (СВ) 10 км    9/0 средняя, верхняя 
[Ac trans|Ci]
+22.1 +8.4 41 +22  1013.4  0.4  754  279           
03 02.08.12 060 (СВ) 10 км    9/0 средняя, верхняя 
[Ac trans|Ci fib]
+22 +10.3 47 +23  1014.4  754  279           
06 02.08.12 070 (В) 10 км    8/0 средняя 
[Ac trans]
+26.1 +10.4 37 +28  1014.7  0.5  755  276  +21.2         
09 02.08.12 090 (В) 10 км    8/0 средняя 
[Ac trans]
+30.6 +9.1 26 +31  1014.8  0.1  755  272           
12 02.08.12 100 (В) 10 км    8/0 средняя, верхняя 
[Ac trans|Ci fib]
+32.5 +7.7 21 +33  1014.2  -0.6  754  270           
15 02.08.12 110 (В) 10 км    8/0 средняя, верхняя 
[Ac trans|Ci fib]
+31.6 +9.1 25 +32  1013.2  -0.9  754  271           
18 02.08.12 130 (ЮВ) 10 км    8/0 средняя 
[Ac trans]
+26.5 +8.8 33 +27  1014.2  0.7  754  276    +33.7       
21 02.08.12 050 (СВ) 10 км    8/0 средняя 
[Ac trans]
+24.7 +8.9 37 +25  1014.1  -0.1  754  277           
00 03.08.12 090 (В) 10 км    8/0 средняя 
[Ac trans]
+21.8 +9.7 46 +22  1013.9  -0.2  754  280           
03 03.08.12 080 (В) 10 км    8/0 средняя 
[Ac trans]
+23.6 +9.4 40 +24  1014.1  0.3  754  278           
06 03.08.12 080 (В) 10 км    5/0 средняя 
[Ac trans]
+28.2 +11.4 35 +31  1013.8  -0.1  754  273  +18.9         
09 03.08.12 090 (В) 10 км    4/0 верхняя 
[Ci fib]
+33.5 +5.2 17 +34  1012.6  -1  753  270           
12 03.08.12 090 (В) 10 км    8/0 верхняя 
[Ci fib]
+34.2 +4 15 +34  1012  -0.6  753  269           
15 03.08.12 100 (В) 10 км    8/0 средняя, верхняя 
[Ac trans|Ci fib]
+33.5 +5.9 18 +34  1010.3  -1.6  752  269           
18 03.08.12 070 (В) 10 км    3/0 средняя 
[Ac trans]
+26.3 +8.2 32 +26  1010.4  -0.1  751  275    +34.6       
21 03.08.12 060 (СВ) 10 км    3/0 средняя 
[Ac trans]
+24.5 +6.3 31 +25  1010.4  751  277           
00 04.08.12 060 (СВ) 10 км    9/0 средняя 
[Ac trans]
+25.5 +5.8 28 +26  1010.1  -0.2  751  276           
03 04.08.12 080 (В) 10 км    9/4 1000 м средняя 
[Ac trans]
+24.9 +7.7 33 +25  1010  -0.1  751  276           
06 04.08.12 070 (В) 10 км  слаб. ливневой дождь  9/1 1000 м кучево-дожд., средняя 
[Cb calv|Ac trans]
+25.2 +11.9 43 +29  1010.5  0.5  752  275  +24.3         
09 04.08.12 090 (В) 10 км  {ливн. осадки}  8/0 средняя, верхняя 
[Ac trans|Ci fib]
+35 +4.1 15 +35  1010  -0.3  751  268           
12 04.08.12 090 (В) 11  10 км  {ливн. осадки}  6/0 средняя, верхняя 
[Ac trans|Ci fib]
+35.5 +7.9 18 +36  1009.1  -0.8  751  266           
15 04.08.12 070 (В) 10 км    6/3 1000 м кучево-дожд., средняя 
[Cb calv|Ac trans]
+32.1 +10.7 27 +34  1008.6  -0.4  750  269           
18 04.08.12 080 (В) 10 км    8/0 средняя 
[Ac trans]
+28.7 +11.3 34 +32  1009.5  0.6  751  272    +36.2  0.0     
21 04.08.12 110 (В) 10 км  слаб. ливневой дождь  8/3 1000 м кучево-дожд., средняя 
[Cb calv|Ac trans]
+23.9 +15.8 60 +34  1010.2  0.5  751  275           
00 05.08.12 070 (В) 10 км  зарница{ливн. осадки}  9/4 1000 м кучево-дожд., средняя 
[Cb cap|Ac trans]
+23.3 +13.8 55 +30  1009.7  -0.4  751  276           
03 05.08.12 060 (СВ) 10 км    9/3 1000 м кучево-дожд., средняя 
[Cb calv|Ac trans]
+23 +13.9 57 +30  1010.4  0.6  751  276           
06 05.08.12 080 (В) 10 км  {ливн. осадки}  9/1 1000 м кучево-дожд., средняя, верхняя 
[Cb calv|Ac trans|Ci fib]
+28.1 +12.3 38 +32  1010.7  0.4  752  272  +22.1    0.0     
09 05.08.12 080 (В) 10 км    8/0 средняя, верхняя 
[Ac trans|Ci fib]
+33.8 +9.7 23 +35  1010.1  -0.3  751  268           
12 05.08.12 070 (В) 10 км    9/3 1500 м кучево-дожд., средняя, верхняя 
[Cb calv|Ac trans|Ci fib]
+33.5 +10 24 +35  1009.2  -0.9  751  268           
15 05.08.12 090 (В) 10 км    8/0 средняя, верхняя 
[Ac trans|Ci fib]
+33.5 +10.1 24 +35  1008.5  -0.7  750  268           
18 05.08.12 070 (В) 10 км  осадки на расстоянии  9/4 1000 м кучево-дожд., средняя 
[Cb calv|Ac trans]
+28.5 +15.2 44 +37  1009.8  1.2  751  271    +35.2  0.0     
21 05.08.12 040 (СВ) 10 км  {гроза, ливн. осадки}  8/3 1000 м кучево-дожд., средняя 
[Cb calv|Ac trans]
+26.3 +15.3 51 +35  1009.9  751  273           
00 06.08.12 050 (СВ) 10 км  {гроза, ливн. осадки}  8/0 средняя, верхняя 
[Ac trans|Ci fib]
+25.3 +13.8 49 +32  1010.1  0.2  751  274           
03 06.08.12 060 (СВ) 10 км    8/0 средняя, верхняя 
[Ac trans|Ci fib]
+24.6 +13.9 51 +31  1010.8  0.6  752  275           
06 06.08.12 080 (В) 10 км    8/0 средняя, верхняя 
[Ac trans|Ci fib]
+27.7 +13.7 42 +34  1011.6  0.8  752  273  +23.6    0.0     
09 06.08.12 090 (В) 10 км    5/0 средняя 
[Ac trans]
+33.4 +12.4 28 +38  1011  -0.4  752  268           
12 06.08.12 090 (В) 10 км    6/3 1000 м средняя 
[Cu med, cong|Ac trans]
+33.1 +11.7 27 +37  1010.6  -0.4  752  268           
15 06.08.12 100 (В) 10 км    8/1 1000 м кучево-дожд., средняя 
[Cb calv|Ac trans]
+31.2 +12.4 32 +36  1011.3  0.5  752  270           
18 06.08.12 080 (В) 10 км    4/0 средняя 
[Ac trans]
+26.1 +13.2 45 +32  1012.5  1.1  753  274    +35       
21 06.08.12 060 (СВ) 10 км    3/0 средняя 
[Ac trans]
+23.7 +12.7 50 +29  1012.9  0.3  753  277           
00 07.08.12 090 (В) 10 км    6/0 средняя 
[Ac trans]
+24.4 +12.8 48 +29  1013.3  0.3  754  276           
03 07.08.12 040 (СВ) 10 км    8/0 средняя 
[Ac trans]
+24.8 +12.8 47 +30  1013.6  0.3  754  276           
06 07.08.12 020 (С) 10 км    8/0 средняя 
[Ac trans]
+26.4 +13 43 +32  1013.4  -0.1  754  274  +22.3         
09 07.08.12 070 (В) 10 км    9/0 средняя 
[Ac trans]
+29 +12.2 35 +33  1013.3  0.1  754  272           
12 07.08.12 050 (СВ) 10 км    9/1 1000 м кучево-дожд., средняя 
[Cb calv|Ac trans]
+29.6 +12.5 35 +34  1012.5  -0.8  753  271           
15 07.08.12 040 (СВ) 10 км  {ливн. осадки}  10/1 1000 м кучево-дожд., средняя 
[Cb calv|Ac und]
+29.7 +10.9 31 +32  1011.7  -0.8  752  272           
18 07.08.12 030 (СВ) 10 км  {ливн. осадки}  8/0 средняя 
[Ac trans]
+28.8 +11.1 33 +31  1011.7  752  272    +30.5  0.0     
21 07.08.12 050 (СВ) 10 км    8/0 средняя 
[Ac trans]
+28.2 +10.7 34 +30  1011.3  -0.5  752  273           
00 08.08.12 030 (СВ) 10 км    8/0 средняя 
[Ac trans]
+27.6 +10.5 34 +29  1010.9  -0.4  752  273           
03 08.08.12 040 (СВ) 10 км    8/0 средняя, верхняя 
[Ac trans|Ci fib]
+27.3 +10.3 35 +29  1010.7  -0.2  752  274           
06 08.08.12 070 (В) 10 км    9/0 средняя, верхняя 
[Ac trans|Ci fib]
+30.4 +11.5 31 +34  1010.6  0.1  752  270  +27.2         
09 08.08.12 090 (В) 10 км    9/0 средняя, верхняя 
[Ac trans|Ci fib]
+35.7 +10 21 +37  1010  -0.4  751  266           
12 08.08.12 060 (СВ) 10 км    9/0 средняя, верхняя 
[Ac trans|Ci fib]
+37.2 +7.8 17 +37  1009  -0.9  751  265           
15 08.08.12 040 (СВ) 10 км    9/0 средняя, верхняя 
[Ac trans|Ci fib]
+34.7 +10.1 22 +36  1008  -1.1  750  266           
18 08.08.12 350 (С) 10 км    9/0 средняя 
[Ac trans]
+31.8 +8.9 24 +32  1008.4  0.4  750  269    +37.5       
21 08.08.12 330 (СЗ) 10 км    8/0 средняя 
[Ac trans]
+27 +11.5 38 +30  1007.6  -0.9  749  273           
00 09.08.12 080 (В) 10 км    9/1 1000 м кучево-дожд., средняя 
[Cb calv|Ac trans]
+25.1 +11.5 43 +28  1007.7  749  274           
03 09.08.12 060 (СВ) 10 км    9/3 1000 м кучево-дожд., средняя 
[Cb calv|Ac trans]
+26.3 +10.6 37 +28  1008.3  0.6  750  274           
06 09.08.12 060 (СВ) 10 км    9/0 средняя, верхняя 
[Ac trans|Ci fib]
+28.5 +12.5 37 +33  1008.4  0.1  750  271  +24.3         
09 09.08.12 020 (С) 10 км  {ливн. осадки}  8/0 средняя, верхняя 
[Ac trans|Ci fib]
+34.7 +11.3 24 +38  1007.9  -0.3  750  266           
12 09.08.12 070 (В) 10 км  {ливн. осадки}  8/1 1000 м кучево-дожд., средняя, верхняя 
[Cb calv|Ac trans|Ci fib]
+35 +10.3 22 +37  1007.1  -0.7  749  266           
15 09.08.12 100 (В) 10 км    9/1 1000 м кучево-дожд., средняя, верхняя 
[Cb calv|Ac trans|Ci fib]
+32.5 +10.5 26 +34  1007.5  0.2  749  268           
18 09.08.12 040 (СВ) 10 км  в посл. час ливневой дождь  9/4 1000 м кучево-дожд., средняя 
[Cb calv|Ac trans]
+28.3 +13.4 40 +34  1008.8  1.1  750  271    +35.9  0.0     
21 09.08.12 360 (С) 10 км  в посл. час ливневой дождь  9/3 1000 м кучево-дожд., средняя 
[Cb calv|Ac trans]
+24 +16.8 64 +36  1010.2  1.3  751  275           
00 10.08.12 010 (С) 10 км  слаб. ливневой дождь  9/4 1000 м кучево-дожд., средняя 
[Cb calv|Ac trans]
+21.5 +18 80 +36  1009.6  -0.5  751  276           
03 10.08.12 340 (С) 10 км  {ливн. осадки}  8/3 1000 м кучево-дожд., средняя 
[Cb calv|Ac trans]
+21.4 +17.5 78 +35  1009.9  0.3  751  277           
06 10.08.12 340 (С) 10 км    6/0 средняя 
[Ac trans]
+24.8 +18.7 69 +40  1010.8  752  273  +20.9    0.4     
09 10.08.12 060 (СВ) 10 км    8/4 600 м средняя 
[Cu med, cong|Ac trans]
+27.8 +17.5 53 +41  1010.5  -0.1  752  271           
12 10.08.12 тихо ()   10 км    8/4 1000 м кучево-дожд., средняя 
[Cb calv|Ac trans]
+29.4 +16.4 45 +41  1009.7  -0.7  751  270           
15 10.08.12 010 (С) 10 км  гроза без осадков{ливн. осадки}  9/5 1000 м кучево-дожд., средняя 
[Cb cap|Ac trans]
+26.8 +17.4 56 +40  1010.4  0.5  751  272           
18 10.08.12 100 (В) 10 км  {гроза, ливн. осадки}  8/3 1000 м кучево-дожд., средняя 
[Cb calv|Ac trans]
+23.2 +17.5 70 +36  1011.3  0.8  752  275    +30.3  0.0     
21 10.08.12 070 (В) 10 км    6/1 1000 м кучево-дожд., средняя 
[Cb calv|Ac trans]
+22.2 +17.1 73 +35  1011.4  0.1  752  276           
00 11.08.12 010 (С) 10 км    8/1 1000 м кучево-дожд., средняя 
[Cb calv|Ac trans]
+22.7 +17.7 73 +36  1011.7  0.3  752  276           
03 11.08.12 090 (В) 10 км    6/0 средняя, верхняя 
[Ac trans|Ci fib]
+21 +17.3 79 +34  1012.4  0.5  753  278           
06 11.08.12 100 (В) 10 км    8/1 1000 м кучево-дожд., средняя 
[Cb calv|Ac trans]
+25.5 +18 63 +40  1012.7  0.5  753  273  +20.6    0.0     
09 11.08.12 120 (ЮВ) 10 км    6/4 1000 м кучево-дожд., средняя 
[Cb calv|Ac trans]
+29.4 +16 44 +40  1012.1  -0.5  753  271           
12 11.08.12 110 (В) 10 км    6/4 1000 м кучево-дожд., верхняя 
[Cb calv|Ci fib]
+31 +14.3 36 +38  1011.2  -0.9  752  269           
15 11.08.12 140 (ЮВ) 10 км  гроза без осадков  9/3 1000 м кучево-дожд., средняя 
[Cb cap|Ac trans]
+27.1 +15.7 50 +37  1011.8  0.6  752  273           
21 11.08.12 040 (СВ) 10 км    8/0 средняя 
[Ac trans]
+22.4 +17 72 +35  1012.1  -0.1  753  277           
00 12.08.12 060 (СВ) 10 км    6/0 средняя 
[Ac trans]
+21.3 +16.5 74 +33  1011.6  -0.5  752  278           
03 12.08.12 070 (В) 10 км    9/0 средняя 
[Ac trans]
+21.8 +15.1 66 +31  1011.7  0.1  752  278           
09 12.08.12 100 (В) 10 км    6/5 1200 м верхняя 
[Cu med, cong|Ci fib]
+31.9 +13.2 32 +38  1010.6  -0.8  752  269           
12 12.08.12 130 (ЮВ) 10 км    8/5 1200 м средняя, верхняя 
[Cu med, cong|Ac trans|Ci fib]
+32.6 +13.3 31 +38  1009.5  -1  751  268           
15 12.08.12 100 (В) 10 км    8/3 1000 м кучево-дожд., средняя 
[Cb calv|Ac trans]
+29.9 +12.5 34 +35  1008.4  -1  750  270           
18 12.08.12 070 (В) 10 км    6/3 1000 м кучево-дожд., средняя 
[Cb calv|Ac trans]
+28.1 +9.5 31 +29  1008  -0.4  750  272    +32.9       
21 12.08.12 080 (В) 10 км    9/1 1000 м кучево-дожд., средняя 
[Cb calv|Ac trans]
+25.7 +11.1 40 +28  1006.8  -1.3  749  274           
00 13.08.12 080 (В) 10 км    8/1 1000 м кучево-дожд., средняя 
[Cb calv|Ac trans]
+24.6 +12.1 46 +29  1005.5  -1.3  748  274           
03 13.08.12 080 (В) 10 км    8/0 средняя, верхняя 
[Ac trans|Ci fib]
+22.8 +13.8 57 +30  1003.9  -1.6  747  275           
06 13.08.12 100 (В) 10 км    4/0 средняя, верхняя 
[Ac trans|Ci fib]
+26.9 +14 45 +34  1003.9  747  271  +22.8         
09 13.08.12 230 (ЮЗ) 10 км    6/3 1000 м кучево-дожд., средняя, верхняя 
[Cb calv|Ac trans|Ci fib]
+32.1 +17.6 42 +46  1004.4  0.6  747  266           
12 13.08.12 270 (З) 10 км    8/5 1500 м кучево-дожд., средняя 
[Cb calv|Ac trans]
+30.7 +17.8 46 +45  1006  1.6  748  267           
15 13.08.12 260 (З) 10 км    3/3 1500 м 
[Cu med, cong]
+26.9 +17.7 57 +41  1007.8  1.7  750  271           
18 13.08.12 280 (З) 10 км    4/0 верхняя 
[Ci fib]
+23.8 +16.5 64 +35  1010.3  2.2  751  275    +32.9       
21 13.08.12 270 (З) 10 км    3/0 верхняя 
[Ci fib]
+22.5 +17.5 73 +36  1011.1  0.7  752  276           
00 14.08.12 280 (З) 10 км    4/0 средняя, верхняя 
[Ac trans|Ci fib]
+20.8 +16.1 74 +31  1011.8  0.6  752  278           
03 14.08.12 070 (В) 10 км    4/0 средняя, верхняя 
[Ac trans|Ci fib]
+18.3 +15.6 84 +30  1013  1.1  753  281           
06 14.08.12 тихо ()   10 км    ясно 
+24.9 +15.4 56 +34  1012.8  753  275  +17         
09 14.08.12 330 (СЗ) 10 км    4/4 1000 м 
[Cu med, cong]
+28.3 +11.5 35 +31  1012.1  -0.7  753  273           
12 14.08.12 220 (ЮЗ) 10 км    3/3 1000 м 
[Cu hum]
+30 +11.7 32 +33  1011.1  -0.8  752  271           
15 14.08.12 040 (СВ) 10 км    3/3 1000 м 
[Cu med, cong]
+30.1 +11.8 32 +34  1010  -1.1  751  270           
18 14.08.12 340 (С) 10 км  зарница  6/3 1000 м кучево-дожд., средняя, верхняя 
[Cb cap|Ac trans|Ci fib]
+25.1 +14.4 51 +33  1010.6  0.5  752  274    +31.1       
21 14.08.12 130 (ЮВ) 10 км  зарница  8/4 1000 м кучево-дожд., средняя 
[Cb cap|Ac trans]
+22.3 +15.2 64 +31  1010.6  752  277           
00 15.08.12 320 (СЗ) 10 км    6/0 средняя, верхняя 
[Ac trans|Ci fib]
+22.6 +16.2 67 +33  1010  -0.7  751  276           
06 15.08.12 280 (З) 10 км    3/0 средняя 
[Ac trans]
+25.4 +11.5 42 +29  1010.5  0.5  752  275  +19.3         
09 15.08.12 240 (ЮЗ) 10 км    3/3 1000 м 
[Cu med, cong]
+28.7 +10.9 33 +31  1010.6  0.2  752  272           
12 15.08.12 260 (З) 10 км    3/3 1000 м 
[Cu med, cong]
+29.8 +6.9 24 +30  1010.3  -0.3  751  272           
15 15.08.12 270 (З) 10 км    1/1 1000 м 
[Cu hum]
+27.5 +8.4 30 +28  1010.2  -0.1  751  274           
18 15.08.12 280 (З) 10 км    ясно 
+23.7 +12.7 50 +29  1011  0.7  752  276    +29.9       
21 15.08.12 280 (З) 10 км    ясно 
+21.4 +12.7 58 +26  1011.1  0.1  752  278           
00 16.08.12 тихо ()   10 км    ясно 
+17.9 +11.4 66 +21  1010.7  -0.5  752  282           
03 16.08.12 020 (С) 10 км    4/0 средняя, верхняя 
[Ac trans|Ci fib]
+19.3 +10.2 56 +21  1011.1  0.3  752  281           
06 16.08.12 110 (В) 10 км    3/0 средняя 
[Ac trans]
+25.1 +12 44 +29  1010.8  -0.1  752  275  +15.8         
09 16.08.12 100 (В) 10 км    5/1 1000 м средняя 
[Cu med, cong|Ac trans]
+28 +9.1 31 +28  1010.6  -0.2  752  273           
12 16.08.12 130 (ЮВ) 10 км    6/4 1000 м средняя, верхняя 
[Cu med, cong|Ac trans|Ci fib]
+29.7 +8.8 27 +30  1009.4  -1  751  271           
15 16.08.12 140 (ЮВ) 10 км    8/5 1200 м средняя 
[Cu med, cong|Ac trans]
+27.7 +12.7 40 +33  1009  -0.3  750  272           
18 16.08.12 170 (Ю) 10 км    6/0 средняя 
[Ac trans]
+22.2 +15 64 +31  1010.3  751  277    +30.6       
21 16.08.12 230 (ЮЗ) 10 км    6/1 300 м средняя 
[Sc|Ac trans]
+20.1 +15.1 73 +29  1010.2  -0.1  751  279           
00 17.08.12 310 (СЗ) 10 км  слаб. ливневой дождь  9/4 1000 м кучево-дожд., средняя 
[Cb calv|Ac trans]
+19.9 +14.3 70 +28  1010.1  -0.1  751  279           
03 17.08.12 150 (ЮВ) 4000 м  дымка{ливн. осадки}  9/3 1000 м кучево-дожд., средняя 
[Cb calv|Ac trans]
+17.7 +15.9 89 +29  1010.3  0.1  751  281           
06 17.08.12 210 (ЮЗ) 10 км  {ливн. осадки}  8/0 средняя 
[Ac trans]
+22.1 +16.3 70 +33  1010.5  0.2  751  277  +17.7       
09 17.08.12 210 (ЮЗ) 10 км    9/5 1200 м кучево-дожд., средняя, верхняя 
[Cb calv|Ac trans|Ci fib]
+24.5 +14.2 53 +32  1010  -0.3  751  275           
12 17.08.12 220 (ЮЗ) 10 км  в посл. час гроза{ливн. осадки}  8/5 1300 м кучево-дожд., средняя, верхняя 
[Cb calv|Ac trans|Ci fib]
+23.6 +14.5 57 +31  1009.8  -0.2  751  276           
15 17.08.12 270 (З) 10 км    5/4 1000 м кучево-дожд., средняя 
[Cb calv|Ac trans]
+24.5 +14.7 54 +33  1009.6  -0.1  751  275           
18 17.08.12 260 (З) 10 км    4/1 1000 м кучево-дожд., средняя 
[Cb calv|Ac trans]
+21.4 +14.7 66 +29  1010.9  1.2  752  278    +26  0.0     
21 17.08.12 220 (ЮЗ) 10 км  в посл. час ливневой дождь  5/3 1000 м кучево-дожд., средняя 
[Cb calv|Ac trans]
+17.8 +15.5 86 +27  1011.2  0.2  752  281           
00 18.08.12 260 (З) 10 км  {ливн. осадки}  4/1 1000 м кучево-дожд., средняя 
[Cb calv|Ac trans]
+17.3 +15.3 88 +27  1011.5  0.2  752  282           
03 18.08.12 260 (З) 10 км    3/0 средняя 
[Ac trans]
+16 +13.2 83 +23  1012.2  0.6  753  284           
06 18.08.12 240 (ЮЗ) 10 км    4/0 верхняя 
[Ci fib]
+21.9 +13.2 58 +28  1012.4  0.4  753  278  +15.6       
09 18.08.12 250 (З) 10 км    6/6 1080 м 
[Cu med, cong]
+25.8 +12.1 42 +30  1012.7  0.4  753  275           
12 18.08.12 260 (З) 10 км    6/6 1200 м 
[Cu med, cong]
+27.4 +12 38 +31  1011.9  -0.7  753  273           
15 18.08.12 250 (З) 10 км    5/3 1000 м кучево-дожд., средняя 
[Cb calv|Ac trans]
+25.5 +13 46 +31  1012.2  0.2  753  275           
18 18.08.12 270 (З) 10 км    8/1 1000 м кучево-дожд., средняя, верхняя 
[Cb calv|Ac trans|Ci fib]
+22.6 +16.5 68 +34  1013.8  1.5  754  277    +27.4       
21 18.08.12 310 (СЗ) 10 км    6/0 средняя, верхняя 
[Ac trans|Ci fib]
+20.9 +16.2 74 +32  1014  0.1  754  279           
00 19.08.12 010 (С) 10 км    5/0 средняя, верхняя 
[Ac trans|Ci fib]
+18.6 +13.2 71 +26  1013.7  -0.2  754  282           
03 19.08.12 010 (С) 10 км    9/1 1000 м кучево-дожд., средняя 
[Cb calv|Ac trans]
+19.1 +12.3 65 +24  1014.1  0.2  754  282           
06 19.08.12 тихо ()   10 км    6/1 1000 м кучево-дожд., средняя 
[Cb calv|Ac trans]
+23.5 +13.1 52 +29  1014.5  0.6  754  277  +17.2         
09 19.08.12 250 (З) 10 км    6/5 1000 м средняя 
[Cu med, cong|Ac trans]
+26 +11 39 +28  1013.7  -0.7  754  275           
12 19.08.12 320 (СЗ) 10 км    9/5 1000 м кучево-дожд., верхняя 
[Cb calv|Ci]
+27.6 +9.1 31 +28  1012.7  -1  753  274           
15 19.08.12 320 (СЗ) 10 км  гроза без осадков  9/5 1080 м кучево-дожд., средняя 
[Cb cap|Ac trans]
+24.3 +13.5 51 +30  1013.1  0.3  753  276           
18 19.08.12 330 (СЗ) 10 км  {гроза}  9/3 1000 м кучево-дожд., средняя 
[Cb calv|Ac trans]
+22.3 +10 46 +23  1014.1  0.8  754  279    +27.9       
21 19.08.12 300 (СЗ) 10 км    6/0 средняя 
[Ac trans]
+20.4 +11.7 57 +24  1014.1  754  281           
00 20.08.12 320 (СЗ) 10 км    5/0 средняя 
[Ac trans]
+17.4 +11.8 70 +22  1013.9  -0.2  754  283           
03 20.08.12 340 (С) 10 км    3/0 средняя 
[Ac trans]
+17 +12.3 74 +22  1014.4  0.5  754  284           
06 20.08.12 360 (С) 10 км    ясно 
+23.6 +13.6 53 +30  1014.4  0.1  754  277  +16.5         
09 20.08.12 290 (З) 10 км    5/5 1200 м 
[Cu med, cong]
+26.8 +10.5 36 +29  1013.6  -0.6  754  275           
12 20.08.12 270 (З) 10 км    6/6 1200 м 
[Cu med, cong]
+25.4 +12.1 43 +29  1012.4  -1.2  753  275           
15 20.08.12 270 (З) 10 км    3/3 1000 м кучево-дожд. 
[Cb calv]
+25.2 +14.4 51 +33  1011.6  -0.7  752  275           
18 20.08.12 270 (З) 10 км    3/0 средняя 
[Ac trans]
+22.6 +16.6 69 +34  1012.3  0.6  753  277    +27.4       
21 20.08.12 270 (З) 10 км    3/0 средняя 
[Ac trans]
+21 +14.8 68 +29  1011.8  -0.6  752  278           
00 21.08.12 250 (З) 10 км    5/0 средняя 
[Ac trans]
+18 +14.9 82 +27  1010.8  -0.9  752  281           
03 21.08.12 230 (ЮЗ) 10 км    9/1 1000 м кучево-дожд., средняя 
[Cb calv|Ac trans]
+19.2 +15.4 79 +29  1009.5  -1.4  751  279           
06 21.08.12 270 (З) 10 км    8/0 средняя, верхняя 
[Ac trans|Ci fib]
+23.9 +15.7 60 +34  1008.2  -1  750  274  +17.5         
09 21.08.12 270 (З) 10 км    9/5 1200 м кучево-дожд., средняя 
[Cb calv|Ac trans]
+25.3 +16.5 58 +37  1007  -1.1  749  273           
12 21.08.12 250 (З) 4000 м  гроза, ливневой дождь  9/6 1080 м кучево-дожд., средняя 
[Cb cap|Ac trans]
+22.4 +18.9 81 +39  1006.5  -0.7  748  274           
15 21.08.12 340 (С) 6{15}  10 км  {гроза, ливн. осадки}  8/5 1000 м кучево-дожд., средняя 
[Cb calv|Ac trans]
+23.1 +12.1 50 +27  1007.8  1.3  749  276           
18 21.08.12 340 (С) 4{15}  10 км  {гроза, ливн. осадки}  1/0 средняя 
[Ac trans]
+18.4 +7.8 50 +19  1011.6  3.5  752  283    +27.2     
21 21.08.12 340 (С) 10 км    ясно 
+13.6 +6.4 62 +13  1013.8  754  288           
00 22.08.12 300 (СЗ) 10 км    ясно 
+11.3 +5.5 67 +11  1015.2  1.3  755  291           
03 22.08.12 290 (З) 10 км    ясно 
+10.2 +5.3 72 +10  1015.7  0.5  755  292           
06 22.08.12 270 (З) 10 км    ясно 
+14.5 +5.7 55 +14  1016.1  0.5  755  288  +10.1         
09 22.08.12 280 (З) 10 км    ясно 
+18.9 +3.1 35 +19  1015.2  -0.7  755  284           
12 22.08.12 280 (З) 10 км    ясно 
+21.7 +3 29 +22  1014.6  -0.4  754  281           
15 22.08.12 290 (З) 10 км    ясно 
+22.4 +0.7 24 +22  1014.2  -0.5  754  281           
18 22.08.12 290 (З) 10 км    ясно 
+18.3 +1.3 32 +19  1016.1  1.8  755  285    +23.1       
21 22.08.12 270 (З) 10 км    ясно 
+15.9 +2.3 40 +17  1016.8  0.6  756  287           
00 23.08.12 310 (СЗ) 10 км    ясно 
+11.7 +3.9 59 +12  1016.9  756  291           
03 23.08.12 320 (СЗ) 10 км    3/0 верхняя 
[Ci sp]
+9.7 +5.5 75 +9  1017.6  0.6  756  293           
06 23.08.12 250 (З) 10 км    4/0 верхняя 
[Ci fib]
+20.5 +8.4 46 +21  1017.6  0.3  757  282  +9.2         
09 23.08.12 270 (З) 10 км    1/0 верхняя 
[Ci fib]
+25.1 +4.4 26 +25  1017  -0.4  756  278           
12 23.08.12 250 (З) 10 км    3/0 верхняя 
[Ci fib]
+26.7 +4.8 25 +27  1016.2  -0.9  756  277           
15 23.08.12 260 (З) 10 км    6/0 средняя, верхняя 
[Ac trans|Ci fib]
+25.3 +6.3 30 +25  1015  -1  755  277           
18 23.08.12 260 (З) 10 км    5/0 верхняя 
[Ci fib]
+21.9 +13.8 60 +28  1015.6  0.4  755  279    +27       
21 23.08.12 230 (ЮЗ) 10 км    5/0 верхняя 
[Ci fib]
+19.6 +12 61 +24  1015  -0.5  755  281           
00 24.08.12 250 (З) 10 км    6/0 верхняя 
[Ci fib]
+18.2 +13.6 75 +25  1014.8  -0.2  755  282           
03 24.08.12 260 (З) 10 км    8/0 кучево-дожд., средняя, верхняя 
[Cb calv|Ac trans|Ci]
+18.8 +15.6 82 +29  1014.3  -0.3  754  281           
06 24.08.12 350 (С) 10 км    9/3 1000 м кучево-дожд., средняя 
[Cb calv|Ac trans]
+21.4 +16.6 74 +33  1014.9  0.6  755  278  +17.6         
09 24.08.12 250 (З) 10 км  {гроза, ливн. осадки}  5/0 средняя 
[Ac trans]
+26.2 +17.2 58 +39  1015.1  0.4  755  274           
12 24.08.12 260 (З) 10 км  {гроза, ливн. осадки}  4/4 1000 м 
[Cu med, cong]
+29.2 +15 42 +38  1014.1  -0.9  754  272           
15 24.08.12 270 (З) 10 км    4/1 1000 м средняя 
[Cu hum|Ac trans]
+27.7 +16 49 +38  1013.7  -0.4  754  272           
18 24.08.12 280 (З) 10 км    3/0 средняя 
[Ac trans]
+24.1 +16 61 +34  1014.7  0.8  755  276    +29.6  0.0     
21 24.08.12 320 (СЗ) 10 км    4/0 средняя 
[Ac trans]
+22.5 +16.3 68 +33  1015  0.3  755  277           
00 25.08.12 080 (В) 10 км    4/0 средняя 
[Ac trans]
+18.3 +15.1 82 +29  1015.1  -0.1  755  282           
03 25.08.12 130 (ЮВ) 10 км    5/0 средняя, верхняя 
[Ac trans|Ci fib]
+18.5 +16.3 87 +31  1015.3  0.2  755  281           
06 25.08.12 150 (ЮВ) 10 км    8/3 1000 м средняя, верхняя 
[Cu med, cong|Ac trans|Ci fib]
+24 +17.9 69 +38  1015.2  0.1  755  276  +17.7         
09 25.08.12 230 (ЮЗ) 10 км    5/1 1000 м средняя, верхняя 
[Cu hum|Ac trans|Ci fib]
+31.3 +14.8 37 +39  1013.5  -1.5  754  270           
12 25.08.12 260 (З) 10 км    5/1 1000 м средняя, верхняя 
[Cu hum|Ac trans|Ci fib]
+31.8 +14.5 35 +40  1012  -1.5  753  269           
15 25.08.12 260 (З) 10 км    9/3 1000 м кучево-дожд., средняя 
[Cb calv|Ac trans]
+29 +12.1 35 +33  1011.2  -0.7  752  272           
18 25.08.12 260 (З) 10 км    4/0 средняя 
[Ac trans]
+26.8 +14.8 48 +35  1011.5  0.1  752  273    +32.3       
21 25.08.12 250 (З) 10 км    3/0 средняя 
[Ac trans]
+24.6 +13.7 51 +31  1011  -0.5  752  275           
00 26.08.12 270 (З) 10 км    ясно 
+23.9 +19.6 77 +42  1010.9  -0.1  752  274           
03 26.08.12 280 (З) 10 км    1/0 средняя 
[Ac trans]
+22 +19.9 88 +40  1011.4  0.4  752  276           
06 26.08.12 240 (ЮЗ) 10 км    ясно 
+27.5 +18.6 58 +43  1011.8  0.5  752  271  +22         
09 26.08.12 280 (З) 10 км    4/0 средняя 
[Ac trans]
+32.3 +16.1 38 +43  1011.3  -0.3  752  268           
12 26.08.12 260 (З) 10 км    5/0 верхняя 
[Ci fib]
+34.4 +15.3 32 +44  1009.5  -1.8  751  266           
15 26.08.12 260 (З) 10 км    4/0 средняя, верхняя 
[Ac trans|Ci fib]
+13.7   1008.6  -0.8  750             
18 26.08.12 290 (З) 10 км    6/0 средняя, верхняя 
[Ac trans|Ci fib]
+28.2 +13.4 40 +34  1009  0.3  750  271    +34.6       
21 26.08.12 340 (С) 10 км    6/0 средняя, верхняя 
[Ac trans|Ci fib]
+24.4 +14 52 +31  1009.1  750  275           
00 27.08.12 050 (СВ) 10 км    5/0 верхняя 
[Ci fib]
+23.2 +14.4 58 +31  1009  -0.2  750  276           
03 27.08.12 080 (В) 10 км    4/0 верхняя 
[Ci fib]
+22.2 +15.2 65 +31  1009.2  0.2  750  276           
06 27.08.12 080 (В) 10 км    ясно 
+24.9 +15.6 56 +35  1009.1  750  274  +22.2         
09 27.08.12 080 (В) 10 км    ясно 
+30.5 +14.7 38 +39  1007.5  -1.4  749  269           
12 27.08.12 090 (В) 10 км    ясно 
+32.1 +14.5 34 +40  1006.1  -1.4  748  267           
15 27.08.12 080 (В) 10 км    ясно 
+30.6 +14.8 38 +39  1004.6  -1.4  747  268           
18 27.08.12 080 (В) 10 км    1/0 средняя 
[Ac trans]
+25.9 +14.8 50 +34  1005.3  0.3  748  272    +32.6       
21 27.08.12 090 (В) 10 км    5/0 средняя 
[Ac trans]
+23.4 +12.4 50 +28  1004.4  -0.8  747  275           
00 28.08.12 070 (В) 10 км    3/0 средняя 
[Ac trans]
+22.3 +11.4 50 +25  1003.9  -0.5  746  276           
03 28.08.12 080 (В) 10 км    1/0 средняя 
[Ac trans]
+21.2 +12.3 57 +26  1002.7  -0.9  746  276           
06 28.08.12 080 (В) 10  10 км    3/0 средняя 
[Ac trans]
+25 +13.3 48 +31  1001.9  -0.8  745  272  +21.2         
09 28.08.12 170 (Ю) 10 км    5/0 средняя, верхняя 
[Ac trans|Ci fib]
+31 +14.4 36 +39  1001.2  -0.5  745  267           
12 28.08.12 260 (З) 10 км    9/4 1000 м кучево-дожд., средняя 
[Cb calv|Ac trans]
+28.6 +17.8 52 +43  1001.5  0.2  745  268           
15 28.08.12 тихо ()   10 км    9/1 1000 м кучево-дожд., средняя 
[Cb calv|Ac trans]
+27.9 +19.4 60 +45  1001.1  -0.3  745  268           
18 28.08.12 120 (ЮВ) 4000 м  в посл. час гроза{дождь}  10/8 210 м кучево-дожд., средняя 
[Cb cap|Ac trans]
+19.9 +16.5 81 +32  1002.9  1.3  746  276    +31.3       
00 29.08.12 180 (Ю) 5{18}  10 км  зарница{гроза, ливн. осадки}  8/3 1000 м кучево-дожд., средняя 
[Cb calv|Ac trans]
+20.5 +17.8 85 +35  1001.7  -0.4  745  275           
03 29.08.12 210 (ЮЗ) 4000 м  слаб. ливневой дождь  9/5 900 м кучево-дожд., средняя 
[Cb calv|Ac trans]
+20.1 +17.7 86 +34  1001  -0.6  744  275           
06 29.08.12 260 (З) 10 км  слаб. ливневой дождь  10/6 210 м кучево-дожд., средняя 
[Cb calv|Ac und]
+18.4 +16.4 88 +30  1002.5  1.4  745  278  +17.8    42     
09 29.08.12 250 (З) 10 км  слаб. ливневой дождь  8/8 330 м кучево-дожд. 
[Cb calv]
+19.2 +15.3 78 +28  1004.4  1.9  747  278           
12 29.08.12 230 (ЮЗ) 12-15{16}  10 км  {ливн. осадки}  8/5 930 м кучево-дожд., средняя 
[Cb calv|Ac trans]
+19.5 +12.2 63 +23  1005.6  748  279           
15 29.08.12 220 (ЮЗ) 10 км  слаб. ливневой дождь  9/8 400 м кучево-дожд., средняя 
[Cb calv|Ac trans]
+18 +12.5 70 +23  1005.4  0.1  748  280           
18 29.08.12 210 (ЮЗ) 10{15}  2000 м  ливневой дождь  10/8 210 м кучево-дожд., средняя 
[Cb calv|Ac und]
+15.2 +13.9 92 +21  1005.2  -0.5  747  282    +21.6     
00 30.08.12 250 (З) 10{15}  2000 м  слаб. ливневой дождь  10/8 150 м кучево-дожд., средняя 
[Cb calv|Ac und]
+16.6 +15 90 +25  1006.2  0.9  748  281           
03 30.08.12 270 (З) 10 км  слаб. ливневой дождь  10/8 300 м кучево-дожд., средняя 
[Cb calv|Ac und]
+16.8 +14.7 87 +24  1008.1  1.7  750  281           
06 30.08.12 270 (З) 10 км  {ливн. осадки}  10/8 420 м средняя 
[Sc|Ac und]
+17.2 +14.3 83 +24  1010.2  1.7  751  282  +15.2    39     
09 30.08.12 270 (З) 10 км  {дождь}  9/8 540 м средняя 
[Sc|Ac trans]
+18 +13.8 76 +25  1011.5  1.6  752  282           
12 30.08.12 260 (З) 10 км  {дождь}  10/8 570 м средняя 
[Sc|Ac und]
+18.4 +13.7 74 +24  1012.9  1.4  753  282           
15 30.08.12 270 (З) 10 км    10/5 630 м средняя 
[Sc|Ac und]
+17.5 +13.3 76 +24  1014.4  1.4  754  283           
18 30.08.12 280 (З) 10 км    9/9 570 м 
[Sc]
+16.4 +12.8 79 +21  1015.6  1.1  755  285    +19.2  0.0     
21 30.08.12 280 (З) 10 км    10/8 630 м средняя 
[Sc|Ac und]
+16.1 +13 82 +21  1015.9  0.1  755  285           
00 31.08.12 280 (З) 10 км    10/10 700 м 
[Sc]
+15.8 +13.1 84 +21  1016.3  0.3  756  285           
03 31.08.12 310 (СЗ) 10 км    9/4 600 м средняя 
[Sc|Ac trans]
+15.4 +12.9 85 +21  1016.8  0.5  756  286           
06 31.08.12 350 (С) 10 км    9/5 630 м средняя 
[Sc|Ac trans]
+17.1 +13 77 +22  1017.6  0.8  757  284  +15.4         
09 31.08.12 350 (С) 10 км    9/6 700 м средняя 
[Sc|Ac trans]
+18.1 +12.6 70 +23  1017.9  0.3  757  284           
12 31.08.12 010 (С) 10 км    9/6 800 м средняя 
[Sc|Ac trans]
+19.3 +12.4 64 +24  1018.2  0.2  757  283           
15 31.08.12 360 (С) 10 км    6/6 800 м 
[Sc]
+18.7 +11.2 62 +23  1018.6  0.4  757  284           
18 31.08.12 тихо ()   10 км    ясно 
+13.4 +10.6 83 +15  1020  0.8  758  289    +19.5       
21 31.08.12 100 (В) 10 км    ясно 
+12.3 +10 86 +14  1020.4  0.6  759  291           
00 01.09.12 тихо ()   3000 м  местами туман поземный  ясно 
+10.5 +9.2 92 +11  1020.8  0.2  759  293           
03 01.09.12 060 (СВ) 10 км    ясно 
+9.8 +7.2 84 +9  1021.9  1.2  760  294           
06 01.09.12 070 (В) 10 км    4/0 средняя, верхняя 
[Ac trans|Ci fib]
+17.5 +8.7 56 +18  1022.5  0.7  760  286  +9.1         
09 01.09.12 360 (С) 10 км    3/3 1000 м 
[Cu med, cong]
+20.7 +7.2 42 +21  1022.3  -0.1  760  284           
12 01.09.12 040 (СВ) 10 км    ясно 
+22.6 +8 39 +23  1021.8  -0.4  760  281           
15 01.09.12 110 (В) 10 км    3/0 верхняя 
[Ci fib]
+21.1 +7.2 41 +21  1021.8  760  283           
18 01.09.12 тихо ()   10 км    5/0 верхняя 
[Ci fib]
+15.5 +8.8 64 +16  1023.3  1.3  761  289    +22.8       
Время (UTC), дата Ветер
(°,м/с) 
Видим.   Явления Облачность Т
(°С)
Тd
(°С)
f(%) Тe
(°С)
Pmin
(гПа)
dP
(гПа)
Po
(мм)
O2
(г/м3)
Тmin Tmax R s Состояние
почвы